Stations météo

réclame
Mon MeteoGroup
Lugo/Rozas, Espagne (8008): Température de l'air & dewpoint: 14.11.2017 01:00:00 - 20.11.2017 01:00:00 (CET)Lugo/Rozas, Espagne (8008): Vitesse du vent: 14.11.2017 01:00:00 - 20.11.2017 01:00:00 (CET)Lugo/Rozas, Espagne (8008): Direction du vent: 14.11.2017 01:00:00 - 20.11.2017 01:00:00 (CET)Lugo/Rozas, Espagne (8008): reduced air pressure: 14.11.2017 01:00:00 - 20.11.2017 01:00:00 (CET)Lugo/Rozas, Espagne (8008): visibility: 14.11.2017 01:00:00 - 20.11.2017 01:00:00 (CET)Lugo/Rozas, Espagne (8008): Quantités de précipitations: 14.11.2017 01:00:00 - 20.11.2017 01:00:00 (CET)
Date & Time tt [°C] td [°C] ff [km/h] ff [knt] dd ppp [hPa] vv [km] rr [mm]
20.11.2017 01:00:00 1,7 1,3 2 1 S 1026,0 2,4 -
20.11.2017 00:00:00 2,5 1,8 2 1 SSW 1025,9 3,5 0,0
19.11.2017 23:00:00 3,0 2,3 2 1 SSE 1026,2 - 0,0
19.11.2017 22:00:00 4,1 3,7 4 2 SE 1025,3 2,7 -
19.11.2017 21:00:00 5,0 4,1 4 2 SSE 1024,9 2,6 0,0
19.11.2017 20:00:00 6,1 4,7 4 2 SSE 1024,7 16 0,0
19.11.2017 19:00:00 8,2 6,2 4 2 SSE 1023,7 13 -
19.11.2017 18:00:00 12,6 8,1 0 0 N 1022,5 14 0,0
19.11.2017 17:00:00 14,5 9,7 0 0 N 1022,1 20 0,0
19.11.2017 16:00:00 13,7 9,3 2 1 ENE 1022,2 20 -
19.11.2017 15:00:00 12,4 8,9 2 1 NE 1022,5 20 0,0
19.11.2017 14:00:00 9,8 7,9 4 2 N 1023,7 19 0,0
19.11.2017 13:00:00 7,2 6,8 2 1 WNW 1024,8 9 -
19.11.2017 12:00:00 4,3 4,3 2 1 ENE 1026,3 0,2 0,0
19.11.2017 11:00:00 2,9 2,9 2 1 NNW 1026,2 0,2 0,0
19.11.2017 10:00:00 1,8 1,8 2 1 ENE 1026,4 0,2 -
19.11.2017 09:00:00 1,8 1,8 2 1 SSW 1026,0 0,1 0,0
19.11.2017 08:00:00 1,8 1,8 2 1 SSE 1025,1 0,2 0,0
19.11.2017 07:00:00 2,2 2,2 2 1 SSE 1024,8 0,2 -
19.11.2017 06:00:00 2,5 2,5 4 2 SW 1024,9 0,2 0,0
19.11.2017 05:00:00 2,5 2,2 2 1 SSE 1024,9 0,2 0,0
19.11.2017 04:00:00 3,3 3,2 4 2 SW 1024,9 0,2 -
19.11.2017 03:00:00 3,4 3,3 4 2 SW 1024,8 0,2 0,0
19.11.2017 02:00:00 4,7 4,7 0 0 N 1024,4 0,1 0,0
19.11.2017 01:00:00 4,9 4,9 2 1 WSW 1024,6 0,1 -
19.11.2017 00:00:00 3,9 3,8 0 0 N 1024,5 0,4 0,0
18.11.2017 23:00:00 4,3 3,7 0 0 N 1024,2 0,5 0,0
18.11.2017 22:00:00 4,7 4,0 2 1 S 1024,2 1,9 -
18.11.2017 21:00:00 5,7 5,0 2 1 SSE 1024,0 2,3 0,0
18.11.2017 20:00:00 7,1 5,6 0 0 N 1023,9 3,8 0,0
18.11.2017 19:00:00 8,9 7,7 2 1 NE 1023,3 6 -
18.11.2017 18:00:00 10,8 8,7 4 2 NNE 1022,9 19 0,0
18.11.2017 17:00:00 13,1 9,3 5 3 NE 1022,0 20 0,0
18.11.2017 16:00:00 14,4 9,0 8 4 NE 1021,5 20 -
18.11.2017 15:00:00 15,2 8,2 5 3 NE 1021,4 20 0,0
18.11.2017 14:00:00 14,5 8,7 5 3 NNE 1022,1 20 0,0
18.11.2017 13:00:00 12,6 8,1 4 2 WNW 1023,0 20 -
18.11.2017 12:00:00 10,0 6,9 4 2 WSW 1024,1 20 0,0
18.11.2017 11:00:00 7,2 5,8 2 1 SW 1024,9 16 0,0
18.11.2017 10:00:00 3,5 3,4 2 1 WSW 1025,4 7 -
18.11.2017 09:00:00 0,4 0,1 2 1 SSW 1025,9 4,5 0,0
18.11.2017 08:00:00 0,6 0,2 4 2 S 1025,3 4,5 0,0
18.11.2017 07:00:00 1,0 0,6 4 2 S 1024,8 4,1 -
18.11.2017 06:00:00 1,5 1,1 2 1 W 1025,0 0,4 0,0
18.11.2017 05:00:00 2,1 1,2 2 1 SSE 1024,9 2,7 0,0
18.11.2017 04:00:00 3,2 3,1 4 2 E 1024,8 2,2 -
18.11.2017 03:00:00 4,2 3,5 2 1 SSE 1024,2 1,4 0,0
18.11.2017 02:00:00 6,0 4,8 2 1 NNW 1024,3 1,0 0,0
18.11.2017 01:00:00 7,4 6,5 4 2 NE 1024,3 4,2 -
18.11.2017 00:00:00 8,2 7,4 5 3 ENE 1024,2 - 0,0
17.11.2017 23:00:00 8,3 7,5 5 3 NE 1024,4 6 0,0
17.11.2017 22:00:00 8,3 7,4 4 2 NE 1023,8 - -
17.11.2017 21:00:00 9,0 7,6 4 2 NE 1023,6 9 0,0
17.11.2017 20:00:00 9,6 8,2 8 4 NE 1023,6 10 0,0
17.11.2017 19:00:00 9,3 8,2 4 2 NE 1023,5 7 -
17.11.2017 18:00:00 10,4 8,5 5 3 NE 1022,8 11 0,0
17.11.2017 17:00:00 12,2 9,4 5 3 NNE 1022,0 15 0,0
17.11.2017 16:00:00 13,6 9,8 8 4 NE 1021,8 20 -
17.11.2017 15:00:00 15,0 10,0 5 3 NE 1021,7 20 0,0
17.11.2017 14:00:00 13,6 9,8 8 4 E 1022,3 20 0,0
17.11.2017 13:00:00 12,4 9,0 9 5 ENE 1023,1 20 -
17.11.2017 12:00:00 11,0 8,7 8 4 E 1024,1 20 0,0
17.11.2017 11:00:00 8,2 7,8 2 1 NE 1024,3 15 0,0
17.11.2017 10:00:00 4,8 4,7 2 1 W 1025,3 12 -
17.11.2017 09:00:00 1,7 1,3 0 0 N 1025,9 6 0,0
17.11.2017 08:00:00 1,9 1,3 2 1 SSE 1025,3 8 0,0
17.11.2017 07:00:00 2,4 2,0 4 2 SSE 1024,9 2,0 -
17.11.2017 06:00:00 2,7 2,3 2 1 S 1024,8 0,5 0,0
17.11.2017 05:00:00 3,3 2,7 0 0 N 1024,6 1,8 0,0
17.11.2017 04:00:00 3,9 3,3 2 1 S 1024,7 0,7 -
17.11.2017 03:00:00 4,7 4,4 2 1 SSE 1024,5 1,0 0,0
17.11.2017 02:00:00 4,2 3,9 4 2 SSE 1025,1 4,4 0,0
17.11.2017 01:00:00 4,0 3,4 2 1 S 1025,0 4,0 -
17.11.2017 00:00:00 4,8 3,9 2 1 SE 1024,8 0,9 0,0
16.11.2017 23:00:00 6,1 5,8 0 0 N 1024,4 0,1 0,0
16.11.2017 22:00:00 5,7 5,0 2 1 S 1024,3 0,2 -
16.11.2017 21:00:00 6,6 5,5 2 1 WSW 1023,9 0,5 0,0
16.11.2017 20:00:00 8,3 6,3 2 1 ESE 1023,6 9 0,0
16.11.2017 19:00:00 10,0 8,4 2 1 NE 1022,9 13 -
16.11.2017 18:00:00 12,8 9,2 4 2 NNE 1021,8 20 0,0
16.11.2017 17:00:00 14,6 6,9 8 4 NE 1021,0 20 0,0
16.11.2017 16:00:00 15,8 7,3 5 3 NE 1020,8 20 -
16.11.2017 15:00:00 14,6 7,6 2 1 E 1021,1 20 0,0
16.11.2017 14:00:00 12,2 7,3 4 2 NNW 1022,2 20 0,0
16.11.2017 13:00:00 9,0 6,8 4 2 N 1023,2 25 -
16.11.2017 12:00:00 4,3 4,2 2 1 WNW 1024,8 7 0,0
16.11.2017 11:00:00 2,2 1,9 2 1 NW 1025,6 0,2 0,0
16.11.2017 10:00:00 2,1 1,8 2 1 NW 1024,8 0,4 -
16.11.2017 09:00:00 0,1 0,0 0 0 N 1025,3 2,3 0,0
16.11.2017 08:00:00 0,2 -0,2 0 0 N 1024,3 0,2 0,0
16.11.2017 07:00:00 0,0 -0,4 2 1 ENE 1024,1 3,0 -
16.11.2017 06:00:00 -0,2 -0,8 2 1 SSW 1023,9 0,3 0,0
16.11.2017 05:00:00 0,6 -0,4 2 1 W 1023,5 11 0,0
16.11.2017 04:00:00 1,5 0,8 0 0 N 1023,1 13 -
16.11.2017 03:00:00 1,6 0,9 2 1 S 1023,1 13 0,0
16.11.2017 02:00:00 2,3 1,6 4 2 SSE 1022,8 10 0,0
16.11.2017 01:00:00 2,9 2,2 2 1 W 1022,5 4,9 -
16.11.2017 00:00:00 3,3 2,6 4 2 S 1022,5 9 0,0
15.11.2017 23:00:00 4,0 2,7 4 2 SSE 1022,5 16 0,0
15.11.2017 22:00:00 4,9 3,4 2 1 SSE 1022,2 20 -
15.11.2017 21:00:00 5,7 3,9 4 2 S 1021,8 20 0,0
15.11.2017 20:00:00 7,2 4,7 4 2 SSE 1021,4 20 0,0
15.11.2017 19:00:00 9,7 5,9 4 2 SE 1020,6 20 -
15.11.2017 18:00:00 14,0 7,3 4 2 SSE 1019,4 20 0,0
15.11.2017 17:00:00 16,7 5,9 2 1 N 1018,7 20 0,0
15.11.2017 16:00:00 17,4 5,0 4 2 N 1018,6 20 -
15.11.2017 15:00:00 17,8 5,0 4 2 NW 1018,7 20 0,0
15.11.2017 14:00:00 15,6 7,9 2 1 N 1019,4 20 0,0
15.11.2017 13:00:00 11,9 7,4 4 2 NNW 1021,2 25 -
15.11.2017 12:00:00 8,5 6,5 2 1 WNW 1022,3 20 0,0
15.11.2017 11:00:00 3,6 3,5 2 1 N 1023,4 - 0,0
15.11.2017 10:00:00 1,4 1,3 2 1 WNW 1023,9 0,4 -
15.11.2017 09:00:00 0,2 -0,1 0 0 N 1023,6 0,3 0,0
15.11.2017 08:00:00 0,7 0,0 2 1 W 1022,8 16 0,0
15.11.2017 07:00:00 0,9 0,5 2 1 SE 1022,5 5 -
15.11.2017 06:00:00 1,3 1,2 2 1 SE 1022,3 0,1 0,0
15.11.2017 05:00:00 1,3 0,9 2 1 W 1022,3 19 0,0
15.11.2017 04:00:00 1,8 1,7 2 1 SE 1022,1 16 -
15.11.2017 03:00:00 1,8 1,2 4 2 SSE 1022,4 19 0,0
15.11.2017 02:00:00 1,7 1,3 2 1 SSE 1022,5 11 0,0
15.11.2017 01:00:00 2,0 1,4 2 1 SSW 1022,6 18 -
15.11.2017 00:00:00 2,6 1,7 2 1 S 1022,8 17 0,0
14.11.2017 23:00:00 3,1 2,4 4 2 SSE 1022,9 14 0,0
14.11.2017 22:00:00 3,9 2,9 2 1 SSE 1022,5 18 -
14.11.2017 21:00:00 5,0 3,7 4 2 SSE 1022,5 17 0,0
14.11.2017 20:00:00 6,4 4,2 2 1 SSW 1022,5 20 0,0
14.11.2017 19:00:00 8,3 5,4 5 3 E 1021,9 20 -
14.11.2017 18:00:00 9,8 5,8 5 3 ENE 1021,7 20 0,0
14.11.2017 17:00:00 12,1 6,4 5 3 NE 1021,4 20 0,0
14.11.2017 16:00:00 13,4 6,0 9 5 ENE 1021,2 20 -
14.11.2017 15:00:00 13,7 5,8 9 5 ENE 1021,6 20 0,0
14.11.2017 14:00:00 12,7 5,6 9 5 ENE 1022,5 20 0,0
14.11.2017 13:00:00 11,8 4,7 8 4 NE 1023,5 25 -
14.11.2017 12:00:00 10,6 4,1 5 3 ENE 1024,3 20 0,0
14.11.2017 11:00:00 8,2 3,8 4 2 N 1025,2 20 0,0
14.11.2017 10:00:00 4,5 3,0 2 1 S 1026,2 25 -
14.11.2017 09:00:00 0,2 -0,1 4 2 SE 1027,0 20 0,0
14.11.2017 08:00:00 0,0 -0,6 2 1 SSW 1026,9 18 0,0
14.11.2017 07:00:00 0,7 0,0 2 1 SSE 1026,3 20 -
14.11.2017 06:00:00 1,0 0,4 4 2 SE 1026,6 20 0,0
14.11.2017 05:00:00 1,9 0,9 2 1 E 1026,5 20 0,0
14.11.2017 04:00:00 2,2 1,3 9 5 ENE 1026,2 20 -
14.11.2017 03:00:00 2,4 1,4 2 1 S 1026,8 18 0,0
14.11.2017 02:00:00 2,7 1,8 4 2 E 1026,8 20 0,0
14.11.2017 01:00:00 2,5 1,9 8 4 E 1027,2 20 -

tt = Température de l'air
td = dewpoint
ff = Vitesse du vent
dd = Direction du vent
ppp = reduced air pressure
vv = visibility
rr = Quantités de précipitations

stations d'obs. à proximité